Location: Bretagne
(43.8474°N, 0.4650°W)
Time: 15:18:51
(UTC+00:00)

BREEZE-M DEB (TANK) - Pass Details

Date: 15 January 2026
Orbit: 761 x 22165 km, 51.3° (Epoch: 17 February)

Event Time Altitude Azimuth Distance (km) Brightness Sun altitude
Rises 17:32:03 0° 262° (W) 5,163 9.2 -7.7°
Reaches altitude 10° 17:36:15 10° 269° (W) 3,200 7.5 -8.4°
Maximum altitude 17:41:55 45° 343° (NNW) 1,084 3.8 -9.3°
Enters shadow 17:45:47 12° 57° (ENE) 2,218 4.8 -10.0°
